Location: B�rgermoos
(47.6500°N, 9.0667°E)
Time: 09:35:00
(UTC+00:00)

A-11 Canister half - Pass Details

Date: 11 August 2021
Orbit: 1526 x 1683 km, 47.3° (Epoch: 20 September)

Event Time Altitude Azimuth Distance (km) Brightness Sun altitude
Rises 14:49:59 0° 292° (WNW) 4,925 12.2 37.4°
Reaches altitude 10° 14:53:35 10° 283° (WNW) 3,920 12.0 36.9°
Maximum altitude 15:02:02 33° 225° (SW) 2,515 11.7 35.5°
Drops below altitude 10° 15:10:16 10° 167° (SSE) 3,808 11.2 34.2°
Sets 15:13:44 0° 157° (SSE) 4,767 11.5 33.6°
